Regional Weather Roundup
Issued by NWS Binghamton, NY

Home | Current Version | Previous Version | Text Only | Print | Product List | Glossary On
Versions: 1 2 3 4 5 6 7 8 9 10 11 12 13 14 15 16 17 18 19 20 21 22 23 24 25 26 27 28 29 30 31 32 33 34 35 36 37 38 39 40 41 42 43 44 45 46 47 48 49 50
000
ASUS41 KBGM 111910
RWRBGM

REGIONAL WEATHER ROUNDUP
NATIONAL WEATHER SERVICE BINGHAMTON NY
200 PM EST THU FEB 11 2016

Note: "fair" indicates few or no clouds below 12,000 feet with no
significant weather and/or obstructions to visibility.

* = Station(s) that does not report precipitation, such as rain,
snow, etc, also no thunder or fog.

!NYZ009-015>018-022>025-036-037-044>046-055>057-062-112000
...CENTRAL NEW YORK...

CITY           SKY/WX    TMP DP  RH WIND       PRES   REMARKS
BINGHAMTON     BLWGSNOW   9   3  77 NW16G25   29.84R VSB 1   WCI  -8
CORTLAND       CLOUDY    12   3  67 NW16G28   29.91R HAZE    WCI  -4
DANSVILLE      LGT SNOW  14   2  58 NW12G21   30.02R WCI   0
ELMIRA         CLOUDY    15  -1  49 NW17G31   29.95S WCI  -1
ITHACA         LGT SNOW  10   1  67 NW25G31   29.94R WCI -11
HORNELL        CLOUDY    12   0  57 NW23G33   30.00R WCI  -7
MONTICELLO     CLOUDY    14   0  52 NW20G29   29.81R WCI  -3
NORWICH        CLOUDY    10  -4  52 NW16G29   29.91R WCI  -7
PENN YAN       LGT SNOW  12   1  61 W17G29    29.97R WCI  -5
ROME           LGT SNOW  10   2  69 W23G30    29.94R WCI -10
SIDNEY         CLOUDY    14   3  62 NW13G25   29.89R WCI   0
SYRACUSE       SNOW      10   7  87 W20G28    29.96R VSB 1/4 WCI  -9
$$

!PAZ038>040-043-044-047-048-072-112000
...NORTHEAST PENNSYLVANIA...

CITY           SKY/WX    TMP DP  RH WIND       PRES   REMARKS
HAZLETON       LGT SNOW  18   5  57 W15G23    29.90R WCI   3
SCRANTON       CLOUDY    19  -1  41 NW20G30   29.90R WCI   3
$$
&&
KEY
WCI = WIND CHILL INDEX
VSB = VISIBILITY
HX  = HEAT INDEX
$$



USA.gov is the U.S. government's official web portal to all federal, state and local government web resources and services.